| time (UTC) | temp F | wind direction | speed MPH | gust MPH | rain 1hr in | rain 24hr in | rain mn in | humidity % | barometer mb |
| 20260503191204 | 48 | 174 | 3.0 | 9.0 | 0.00 | 0.12 | 0.12 | 87 | 1012.6 |
| 20260503190701 | 48 | 217 | 4.0 | 7.0 | 0.00 | 0.12 | 0.12 | 89 | 1012.5 |
| 20260503190157 | 48 | 208 | 4.0 | 6.0 | 0.05 | 0.12 | 0.12 | 89 | 1012.7 |
| 20260503185654 | 48 | 215 | 2.0 | 4.0 | 0.12 | 0.12 | 0.12 | 89 | 1012.8 |
| 20260503185149 | 48 | 172 | 4.0 | 6.0 | 0.07 | 0.11 | 0.11 | 89 | 1013.3 |
| 20260503184645 | 48 | 197 | 2.0 | 3.0 | 0.05 | 0.10 | 0.10 | 88 | 1013.9 |
| 20260503184142 | 48 | 212 | 2.0 | 3.0 | 0.12 | 0.10 | 0.10 | 87 | 1014.2 |
| 20260503183638 | 48 | 175 | 1.0 | 3.0 | 0.12 | 0.09 | 0.09 | 86 | 1014.4 |
| 20260503183136 | 48 | 213 | 3.0 | 7.0 | 0.24 | 0.08 | 0.08 | 85 | 1014.5 |
| 20260503182633 | 49 | 221 | 6.0 | 9.0 | 0.24 | 0.07 | 0.07 | 84 | 1014.5 |
| 20260503182132 | 49 | 184 | 6.0 | 8.0 | 0.05 | 0.04 | 0.04 | 84 | 1014.9 |
| 20260503181628 | 49 | 221 | 3.0 | 4.0 | 0.00 | 0.03 | 0.03 | 84 | 1014.8 |
| 20260503181125 | 48 | 242 | 3.0 | 4.0 | 0.00 | 0.03 | 0.03 | 85 | 1015.0 |
| 20260503180622 | 48 | 211 | 3.0 | 4.0 | 0.00 | 0.03 | 0.03 | 85 | 1014.9 |
| 20260503180120 | 48 | 219 | 5.0 | 7.0 | 0.00 | 0.03 | 0.03 | 84 | 1015.1 |
| 20260503175616 | 48 | 210 | 4.0 | 6.0 | 0.07 | 0.03 | 0.03 | 85 | 1015.2 |
| 20260503175114 | 48 | 223 | 2.0 | 6.0 | 0.07 | 0.03 | 0.03 | 84 | 1015.2 |
| 20260503174610 | 48 | 207 | 3.0 | 4.0 | 0.05 | 0.02 | 0.02 | 84 | 1014.9 |
| 20260503174107 | 49 | 190 | 2.0 | 3.0 | 0.05 | 0.02 | 0.02 | 83 | 1015.6 |
| 20260503173602 | 49 | 209 | 4.0 | 8.0 | 0.07 | 0.01 | 0.01 | 80 | 1015.4 |
| 20260503173059 | 50 | 220 | 4.0 | 6.0 | 0.07 | 0.01 | 0.01 | 78 | 1015.7 |
| 20260503172556 | 50 | 244 | 3.0 | 10.0 | 0.00 | 0.00 | 0.00 | 74 | 1015.8 |
| 20260503172053 | 51 | 182 | 4.0 | 7.0 | 0.00 | 0.00 | 0.00 | 72 | 1015.6 |
| 20260503171549 | 52 | 207 | 3.0 | 10.0 | 0.00 | 0.00 | 0.00 | 69 | 1015.4 |
| 20260503171047 | 52 | 231 | 5.0 | 6.0 | 0.00 | 0.00 | 0.00 | 68 | 1015.6 |
| 20260503170543 | 52 | 214 | 8.0 | 14.0 | 0.00 | 0.00 | 0.00 | 67 | 1015.4 |
| 20260503150936 | 55 | 183 | 4.0 | 9.0 | 0.00 | 0.00 | 0.00 | 54 | 1015.9 |
| 20260503150432 | 55 | 209 | 8.0 | 9.0 | 0.00 | 0.00 | 0.00 | 55 | 1015.9 |
| 20260503131325 | 49 | 222 | 6.0 | 7.0 | 0.00 | 0.00 | 0.00 | 61 | 1016.7 |
| 20260503130823 | 49 | 229 | 4.0 | 7.0 | 0.00 | 0.00 | 0.00 | 61 | 1016.7 |
| 20260503130320 | 49 | 230 | 4.0 | 4.0 | 0.00 | 0.00 | 0.00 | 61 | 1016.9 |
| 20260503110714 | 41 | 219 | 2.0 | 4.0 | 0.00 | 0.00 | 0.00 | 66 | 1016.7 |
| 20260503110211 | 41 | 221 | 2.0 | 6.0 | 0.00 | 0.00 | 0.00 | 67 | 1016.7 |
| 20260503100137 | 42 | 205 | 2.0 | 3.0 | 0.00 | 0.00 | 0.00 | 63 | 1016.3 |
| 20260503081527 | 42 | 223 | 2.0 | 4.0 | 0.00 | 0.00 | 0.00 | 65 | 1016.8 |
| 20260503081024 | 42 | 215 | 2.0 | 3.0 | 0.00 | 0.00 | 0.00 | 64 | 1016.7 |
| 20260503080520 | 42 | 203 | 3.0 | 3.0 | 0.00 | 0.00 | 0.00 | 64 | 1016.6 |
| 20260503072454 | 42 | 237 | 2.0 | 3.0 | 0.00 | 0.00 | 0.00 | 66 | 1016.7 |
| 20260503071951 | 42 | 255 | 3.0 | 3.0 | 0.00 | 0.00 | 0.00 | 66 | 1016.9 |
| 20260503071448 | 42 | 230 | 1.0 | 3.0 | 0.00 | 0.00 | 0.00 | 66 | 1017.0 |
| 20260503070944 | 42 | 232 | 1.0 | 3.0 | 0.00 | 0.00 | 0.00 | 66 | 1017.0 |
| 20260503070441 | 42 | 232 | 2.0 | 3.0 | 0.00 | 0.00 | 0.00 | 66 | 1017.1 |
| 20260503054900 | 43 | 234 | 2.0 | 2.0 | 0.00 | 0.00 | 0.00 | 65 | 1017.8 |
| 20260503054356 | 43 | 211 | 1.0 | 2.0 | 0.00 | 0.00 | 0.00 | 65 | 1017.7 |
| 20260503053854 | 43 | 217 | 1.0 | 2.0 | 0.00 | 0.00 | 0.00 | 65 | 1017.9 |
| 20260503053352 | 43 | 232 | 2.0 | 4.0 | 0.00 | 0.00 | 0.00 | 64 | 1017.8 |
| 20260503052848 | 43 | 211 | 3.0 | 3.0 | 0.00 | 0.00 | 0.00 | 64 | 1018.0 |
| 20260503052345 | 43 | 246 | 1.0 | 3.0 | 0.00 | 0.00 | 0.00 | 64 | 1017.6 |
| 20260503051841 | 43 | 220 | 2.0 | 3.0 | 0.00 | 0.00 | 0.00 | 64 | 1017.9 |
| 20260503051337 | 43 | 219 | 1.0 | 3.0 | 0.00 | 0.00 | 0.00 | 63 | 1017.9 |
| 20260503050835 | 43 | 223 | 1.0 | 2.0 | 0.00 | 0.00 | 0.00 | 63 | 1017.9 |
| 20260503050331 | 43 | 209 | 2.0 | 2.0 | 0.00 | 0.00 | 0.00 | 63 | 1018.0 |
| 20260503045828 | 43 | 207 | 1.0 | 2.0 | 0.00 | 0.00 | 0.00 | 63 | 1018.0 |
| 20260503045326 | 43 | 204 | 2.0 | 2.0 | 0.00 | 0.00 | 0.00 | 62 | 1018.0 |
| 20260503044822 | 44 | 219 | 2.0 | 3.0 | 0.00 | 0.00 | 0.00 | 62 | 1017.9 |
| 20260503044319 | 44 | 194 | 1.0 | 2.0 | 0.00 | 0.00 | 0.00 | 62 | 1018.0 |
| 20260503043816 | 44 | 209 | 0.0 | 0.0 | 0.00 | 0.00 | 0.00 | 62 | 1018.0 |
| 20260503043313 | 44 | 208 | 1.0 | 2.0 | 0.00 | 0.00 | 0.00 | 61 | 1018.0 |
| 20260503042809 | 44 | 213 | 1.0 | 2.0 | 0.00 | 0.00 | 0.00 | 62 | 1018.1 |
| 20260503042306 | 44 | 207 | 0.0 | 0.0 | 0.00 | 0.00 | 0.00 | 61 | 1018.1 |
| 20260503041802 | 44 | 207 | 1.0 | 2.0 | 0.00 | 0.00 | 0.00 | 61 | 1018.3 |
| 20260503041300 | 44 | 217 | 1.0 | 1.0 | 0.00 | 0.00 | 0.00 | 61 | 1018.2 |
| 20260503040757 | 44 | 206 | 0.0 | 1.0 | 0.00 | 0.00 | 0.00 | 62 | 1018.2 |
| 20260503040255 | 44 | 197 | 1.0 | 2.0 | 0.00 | 0.00 | 0.00 | 62 | 1018.2 |
| 20260503035751 | 44 | 208 | 0.0 | 0.0 | 0.00 | 0.00 | 0.00 | 62 | 1018.2 |
| 20260503035249 | 43 | 203 | 0.0 | 0.0 | 0.00 | 0.00 | 0.00 | 64 | 1018.2 |
| 20260503034746 | 44 | 206 | 0.0 | 0.0 | 0.00 | 0.00 | 0.00 | 62 | 1018.1 |
| 20260503034243 | 43 | 193 | 0.0 | 0.0 | 0.00 | 0.00 | 0.00 | 63 | 1018.2 |
| 20260503033741 | 43 | 196 | 0.0 | 0.0 | 0.00 | 0.00 | 0.00 | 64 | 1018.1 |
| 20260503033238 | 43 | 204 | 0.0 | 0.0 | 0.00 | 0.00 | 0.00 | 65 | 1018.1 |
| 20260503032736 | 43 | 186 | 0.0 | 0.0 | 0.00 | 0.00 | 0.00 | 65 | 1018.2 |
| 20260503032234 | 42 | 191 | 0.0 | 0.0 | 0.00 | 0.00 | 0.00 | 68 | 1018.2 |
| 20260503031731 | 41 | 180 | 0.0 | 0.0 | 0.00 | 0.00 | 0.00 | 69 | 1018.3 |
| 20260503031229 | 41 | 168 | 0.0 | 0.0 | 0.00 | 0.00 | 0.00 | 73 | 1018.2 |
| 20260503030725 | 41 | 164 | 0.0 | 0.0 | 0.00 | 0.00 | 0.00 | 73 | 1018.3 |
| 20260503030221 | 41 | 155 | 0.0 | 0.0 | 0.00 | 0.00 | 0.00 | 72 | 1018.3 |
| 20260503025718 | 40 | 151 | 0.0 | 0.0 | 0.00 | 0.00 | 0.00 | 70 | 1018.2 |
| 20260503025216 | 41 | 147 | 0.0 | 0.0 | 0.00 | 0.00 | 0.00 | 70 | 1018.4 |
| 20260503024712 | 41 | 148 | 0.0 | 0.0 | 0.00 | 0.00 | 0.00 | 69 | 1018.4 |
| 20260503024210 | 41 | 148 | 0.0 | 0.0 | 0.00 | 0.00 | 0.00 | 67 | 1018.4 |
| 20260503023707 | 41 | 146 | 0.0 | 0.0 | 0.00 | 0.00 | 0.00 | 68 | 1018.2 |
| 20260503023203 | 41 | 154 | 0.0 | 0.0 | 0.00 | 0.00 | 0.00 | 70 | 1018.3 |
| 20260503022659 | 41 | 154 | 0.0 | 0.0 | 0.00 | 0.00 | 0.00 | 69 | 1018.3 |
| 20260503022159 | 41 | 154 | 0.0 | 0.0 | 0.00 | 0.00 | 0.00 | 68 | 1018.3 |
| 20260503021656 | 41 | 154 | 0.0 | 0.0 | 0.00 | 0.00 | 0.00 | 67 | 1018.2 |
| 20260503021153 | 42 | 154 | 0.0 | 0.0 | 0.00 | 0.00 | 0.00 | 66 | 1018.4 |
| 20260503020650 | 42 | 154 | 0.0 | 0.0 | 0.00 | 0.00 | 0.00 | 66 | 1018.3 |
| 20260503020147 | 42 | 154 | 0.0 | 0.0 | 0.00 | 0.00 | 0.00 | 65 | 1018.2 |
| 20260503015644 | 42 | 154 | 0.0 | 0.0 | 0.00 | 0.00 | 0.00 | 65 | 1018.2 |
| 20260503015141 | 42 | 161 | 0.0 | 0.0 | 0.00 | 0.00 | 0.00 | 64 | 1018.1 |
| 20260503014637 | 42 | 154 | 0.0 | 0.0 | 0.00 | 0.00 | 0.00 | 66 | 1018.1 |
| 20260503014135 | 43 | 154 | 0.0 | 0.0 | 0.00 | 0.00 | 0.00 | 63 | 1018.2 |
| 20260503013632 | 43 | 154 | 0.0 | 0.0 | 0.00 | 0.00 | 0.00 | 60 | 1018.2 |
| 20260503013130 | 44 | 154 | 0.0 | 0.0 | 0.00 | 0.00 | 0.00 | 59 | 1018.2 |
| 20260503012627 | 44 | 154 | 0.0 | 0.0 | 0.00 | 0.00 | 0.00 | 59 | 1018.2 |
| 20260503012123 | 44 | 167 | 0.0 | 0.0 | 0.00 | 0.00 | 0.00 | 62 | 1017.9 |
| 20260503011620 | 44 | 167 | 0.0 | 0.0 | 0.00 | 0.00 | 0.00 | 63 | 1018.1 |
| 20260503011117 | 45 | 167 | 0.0 | 0.0 | 0.00 | 0.00 | 0.00 | 60 | 1017.9 |
| 20260503010613 | 45 | 167 | 0.0 | 0.0 | 0.00 | 0.00 | 0.00 | 58 | 1018.1 |
| 20260503010111 | 46 | 167 | 0.0 | 0.0 | 0.00 | 0.00 | 0.00 | 61 | 1018.0 |
| 20260503005608 | 46 | 167 | 0.0 | 0.0 | 0.00 | 0.00 | 0.00 | 59 | 1017.9 |
| 20260503005105 | 47 | 167 | 0.0 | 0.0 | 0.00 | 0.00 | 0.00 | 60 | 1018.0 |
| 20260503004601 | 48 | 155 | 0.0 | 0.0 | 0.00 | 0.00 | 0.00 | 58 | 1017.9 |
| 20260503004100 | 49 | 138 | 0.0 | 0.0 | 0.00 | 0.00 | 0.00 | 53 | 1018.2 |
| 20260503003556 | 49 | 138 | 0.0 | 0.0 | 0.00 | 0.00 | 0.00 | 52 | 1018.2 |
| 20260503003053 | 50 | 137 | 0.0 | 0.0 | 0.00 | 0.00 | 0.00 | 48 | 1018.2 |
| 20260503002550 | 50 | 137 | 0.0 | 0.0 | 0.00 | 0.00 | 0.00 | 52 | 1018.2 |
| 20260503002047 | 50 | 157 | 0.0 | 0.0 | 0.00 | 0.00 | 0.00 | 58 | 1018.1 |
| 20260503001543 | 50 | 149 | 0.0 | 0.0 | 0.00 | 0.00 | 0.00 | 56 | 1017.9 |
| 20260503001041 | 51 | 148 | 0.0 | 0.0 | 0.00 | 0.00 | 0.00 | 50 | 1018.2 |
| 20260503000538 | 51 | 148 | 0.0 | 0.0 | 0.00 | 0.00 | 0.00 | 49 | 1018.3 |
| 20260503000035 | 51 | 149 | 0.0 | 0.0 | 0.00 | 0.00 | 0.00 | 48 | 1018.0 |
| 20260502235531 | 51 | 149 | 0.0 | 0.0 | 0.00 | 0.00 | 0.00 | 52 | 1018.3 |
| 20260502235029 | 51 | 172 | 0.0 | 0.0 | 0.00 | 0.00 | 0.00 | 42 | 1018.0 |
| 20260502234525 | 52 | 167 | 0.0 | 0.0 | 0.00 | 0.00 | 0.00 | 46 | 1018.3 |
| 20260502234023 | 52 | 202 | 0.0 | 0.0 | 0.00 | 0.00 | 0.00 | 39 | 1018.1 |
| 20260502233518 | 53 | 178 | 0.0 | 0.0 | 0.00 | 0.00 | 0.00 | 44 | 1018.1 |
| 20260502233015 | 53 | 199 | 1.0 | 1.0 | 0.00 | 0.00 | 0.00 | 40 | 1018.3 |
| 20260502232511 | 53 | 169 | 0.0 | 0.0 | 0.00 | 0.00 | 0.00 | 39 | 1018.4 |
| 20260502232008 | 53 | 224 | 0.0 | 1.0 | 0.00 | 0.00 | 0.00 | 38 | 1018.3 |
| 20260502231506 | 53 | 221 | 1.0 | 2.0 | 0.00 | 0.00 | 0.00 | 37 | 1018.3 |
| 20260502231004 | 53 | 206 | 0.0 | 1.0 | 0.00 | 0.00 | 0.00 | 37 | 1018.2 |
| 20260502230501 | 54 | 245 | 0.0 | 0.0 | 0.00 | 0.00 | 0.00 | 36 | 1018.3 |
| 20260502230000 | 55 | 178 | 0.0 | 0.0 | 0.00 | 0.00 | 0.00 | 40 | 1018.0 |
| 20260502225455 | 53 | 324 | 0.0 | 0.0 | 0.00 | 0.00 | 0.00 | 37 | 1018.4 |
| 20260502224952 | 52 | 56 | 0.0 | 0.0 | 0.00 | 0.00 | 0.00 | 38 | 1018.1 |
| 20260502224448 | 52 | 317 | 1.0 | 1.0 | 0.00 | 0.00 | 0.00 | 37 | 1018.5 |
| 20260502223945 | 52 | 247 | 1.0 | 1.0 | 0.00 | 0.00 | 0.00 | 37 | 1018.3 |
| 20260502223443 | 53 | 211 | 2.0 | 4.0 | 0.00 | 0.00 | 0.00 | 37 | 1018.3 |
| 20260502222941 | 54 | 243 | 2.0 | 2.0 | 0.00 | 0.00 | 0.00 | 36 | 1018.4 |
| 20260502222438 | 55 | 248 | 2.0 | 2.0 | 0.00 | 0.00 | 0.00 | 34 | 1018.4 |
| 20260502221934 | 55 | 190 | 0.0 | 2.0 | 0.00 | 0.00 | 0.00 | 38 | 1018.2 |
| 20260502221430 | 55 | 322 | 0.0 | 0.0 | 0.00 | 0.00 | 0.00 | 38 | 1018.4 |
| 20260502220927 | 56 | 159 | 1.0 | 2.0 | 0.00 | 0.00 | 0.00 | 33 | 1018.4 |
| 20260502220423 | 55 | 316 | 1.0 | 1.0 | 0.00 | 0.00 | 0.00 | 37 | 1018.4 |
| 20260502215920 | 55 | 195 | 0.0 | 0.0 | 0.00 | 0.00 | 0.00 | 35 | 1018.4 |
| 20260502215417 | 55 | 339 | 2.0 | 4.0 | 0.00 | 0.00 | 0.00 | 34 | 1018.4 |
| 20260502214914 | 53 | 334 | 2.0 | 3.0 | 0.00 | 0.00 | 0.00 | 37 | 1018.7 |
| 20260502214410 | 54 | 234 | 4.0 | 4.0 | 0.00 | 0.00 | 0.00 | 36 | 1018.4 |
| 20260502213908 | 55 | 296 | 3.0 | 4.0 | 0.00 | 0.00 | 0.00 | 33 | 1018.5 |
| 20260502213405 | 55 | 349 | 4.0 | 7.0 | 0.00 | 0.00 | 0.00 | 33 | 1018.5 |
| 20260502212904 | 55 | 237 | 1.0 | 4.0 | 0.00 | 0.00 | 0.00 | 36 | 1018.3 |
| 20260502212402 | 55 | 252 | 0.0 | 3.0 | 0.00 | 0.00 | 0.00 | 35 | 1018.4 |
| 20260502211859 | 55 | 87 | 4.0 | 4.0 | 0.00 | 0.00 | 0.00 | 34 | 1018.5 |
| 20260502211354 | 55 | 210 | 1.0 | 3.0 | 0.00 | 0.00 | 0.00 | 35 | 1018.4 |
| 20260502210852 | 54 | 269 | 1.0 | 2.0 | 0.00 | 0.00 | 0.00 | 41 | 1018.5 |
| 20260502210349 | 55 | 335 | 2.0 | 4.0 | 0.00 | 0.00 | 0.00 | 34 | 1018.6 |
| 20260502205846 | 54 | 330 | 2.0 | 2.0 | 0.00 | 0.00 | 0.00 | 41 | 1018.5 |
| 20260502205342 | 53 | 268 | 1.0 | 2.0 | 0.00 | 0.00 | 0.00 | 38 | 1018.7 |
| 20260502204839 | 52 | 299 | 0.0 | 3.0 | 0.00 | 0.00 | 0.00 | 36 | 1018.7 |
| 20260502204337 | 51 | 311 | 0.0 | 1.0 | 0.00 | 0.00 | 0.00 | 40 | 1018.7 |
| 20260502203834 | 51 | 188 | 1.0 | 3.0 | 0.00 | 0.00 | 0.00 | 35 | 1018.8 |
| 20260502203331 | 51 | 317 | 2.0 | 2.0 | 0.00 | 0.00 | 0.00 | 41 | 1018.8 |
| 20260502202832 | 52 | 341 | 1.0 | 4.0 | 0.00 | 0.00 | 0.00 | 37 | 1018.9 |
| 20260502202330 | 53 | 260 | 1.0 | 3.0 | 0.00 | 0.00 | 0.00 | 37 | 1018.9 |
| 20260502201827 | 54 | 177 | 1.0 | 6.0 | 0.00 | 0.00 | 0.00 | 35 | 1019.1 |
| 20260502201323 | 54 | 229 | 2.0 | 4.0 | 0.00 | 0.00 | 0.00 | 37 | 1019.1 |
| 20260502200820 | 54 | 192 | 1.0 | 2.0 | 0.00 | 0.00 | 0.00 | 34 | 1019.0 |
| 20260502200315 | 55 | 73 | 0.0 | 2.0 | 0.00 | 0.00 | 0.00 | 40 | 1019.2 |
| 20260502195814 | 55 | 200 | 2.0 | 3.0 | 0.00 | 0.00 | 0.00 | 35 | 1019.2 |
| 20260502195310 | 54 | 302 | 1.0 | 3.0 | 0.00 | 0.00 | 0.00 | 40 | 1019.2 |
| 20260502194807 | 53 | 125 | 1.0 | 3.0 | 0.00 | 0.00 | 0.00 | 35 | 1019.4 |
| 20260502194304 | 53 | 28 | 2.0 | 6.0 | 0.00 | 0.00 | 0.00 | 33 | 1019.4 |
| 20260502193759 | 52 | 232 | 3.0 | 6.0 | 0.00 | 0.00 | 0.00 | 38 | 1019.6 |
| 20260502193257 | 52 | 302 | 1.0 | 2.0 | 0.00 | 0.00 | 0.00 | 37 | 1019.9 |
| 20260502192757 | 53 | 325 | 2.0 | 4.0 | 0.00 | 0.00 | 0.00 | 37 | 1019.8 |
| 20260502192255 | 52 | 140 | 0.0 | 3.0 | 0.00 | 0.00 | 0.00 | 37 | 1020.0 |
| 20260502191751 | 51 | 326 | 2.0 | 4.0 | 0.00 | 0.00 | 0.00 | 40 | 1019.9 |
| 20260502191249 | 52 | 169 | 2.0 | 4.0 | 0.00 | 0.00 | 0.00 | 39 | 1020.1 |